User: anonymous   Login
Location: Unspecified
(0.0000°N, 0.0000°E)
Time: 08:41:27
(UTC+00:00)
Language:

GALILEO 11 (268) - Orbit

View from above orbital plane
View from above orbital plane
View from above satellite
View from above satellite

Ground track
Ground track

The orbit data is extracted from the following two-line orbital elements,

1 41175U 15079B   25130.27544627  .00000048  00000-0  00000+0 0  9999
2 41175  55.5885 112.3219 0004997 321.1440  38.7998  1.70474170 58489
Epoch (UTC): 10 May 2025 06:36:38
Eccentricity: 0.0004997
inclination: 55.5885°
perigee height: 23207 km
apogee height: 23237 km
right ascension of ascending node: 112.3219°
argument of perigee: 321.1440°
revolutions per day: 1.70474170
mean anomaly at epoch: 38.7998°
orbit number at epoch: 5848

The dashed part of the orbit path shows where the satellite is in the earth's shadow,  

DLR